User: anonymous   Login
Location: Unspecified
(0.0000°N, 0.0000°E)
Time: 23:41:19
(UTC+00:00)
Language:

ISS - Orbit

View from above orbital plane
View from above orbital plane
View from above satellite
View from above satellite

Ground track
Ground track

The orbit data is extracted from the following two-line orbital elements,

1 25544U 98067A   17229.50738474  .00016717  00000-0  10270-3 0  9017
2 25544  51.6409  92.6408 0004965 151.0911 209.0517 15.54161015 31285
Epoch (UTC): 17 August 2017 12:10:38
Eccentricity: 0.0004965
inclination: 51.6409°
perigee height: 401 km
apogee height: 408 km
right ascension of ascending node: 92.6408°
argument of perigee: 151.0911°
revolutions per day: 15.54161015
mean anomaly at epoch: 209.0517°
orbit number at epoch: 3128

The dashed part of the orbit path shows where the satellite is in the earth's shadow,  

DLR